Location: ???????
(54.6339°N, 39.4245°E)
Time: 03:36:26
(UTC+00:00)

Cosmos 1356 Rocket - Pass Details

Date: 19 May 2025
Orbit: 517 x 566 km, 81.2° (Epoch: 14 June)

Event Time Altitude Azimuth Distance (km) Brightness Sun altitude
Exits shadow 18:52:48 - 180° (S) 2,058 5.7 -9.2°
Reaches altitude 10° 18:53:18 10° 179° (S) 1,861 5.5 -9.2°
Maximum altitude 18:57:21 60° 99° (E) 651 3.5 -9.5°
Drops below altitude 10° 19:01:23 10° 20° (NNE) 1,859 6.6 -9.8°
Sets 19:03:35 0° 17° (NNE) 2,753 7.5 -10.0°
